QPF
0.02 0.04 0.06 0.06 0.06 0.07 0.10 0.10 0.10 0.12 0.12 0.14 0.16 0.13 0.15 0.15 0.14 0.14 0.13 0.14 0.11 0.13 0.15 0.14 0.13 0.13 0.13 0.15 0.16 0.14 0.11 0.07 0.06 0.05 0.04 0.04 0.05 0.06 0.07 0.06 0.05 0.04 0.04
0.02 0.03 0.04 0.04 0.04 0.05 0.05 0.04 0.04 0.04 0.05 0.09 0.09 0.07 0.08 0.10 0.11 0.12 0.12 0.10 0.09 0.08 0.08 0.09 0.10 0.10 0.10 0.10 0.11 0.11 0.11 0.10 0.07 0.06 0.06 0.05 0.05 0.06 0.06 0.08 0.09 0.08 0.07
0.02 0.01 0.02 0.02 0.02 0.02 0.02 0.02 0.02 0.03 0.03 0.04 0.05 0.05 0.05 0.05 0.06 0.06 0.08 0.08 0.06 0.05 0.05 0.05 0.06 0.06 0.07 0.07 0.09 0.09 0.10 0.11 0.10 0.08 0.08 0.08 0.07 0.07 0.07 0.07 0.08 0.08 0.09
0.00 0.00 0.00 0.01 0.01 0.01 0.01 0.01 0.01 0.02 0.01 0.01 0.02 0.02 0.02 0.02 0.02 0.02 0.02 0.04 0.04 0.04 0.05 0.06 0.07 0.05 0.04 0.04 0.05 0.07 0.08 0.09 0.10 0.09 0.08 0.07 0.07 0.06 0.07 0.08 0.08 0.08 0.08
0.00 0.00 0.00 0.00 0.00 0.00 0.00 0.00 0.00 0.00 0.01 0.00 0.00 0.01 0.01 0.01 0.01 0.01 0.01 0.02 0.02 0.04 0.05 0.06 0.06 0.05 0.04 0.04 0.04 0.05 0.06 0.08 0.08 0.07 0.06 0.06 0.06 0.05 0.05 0.06 0.07 0.08 0.08
0.00 0.00 0.00 0.00 0.00 0.00 0.00 0.00 0.00 0.00 0.00 0.00 0.00 0.01 0.01 0.01 0.01 0.01 0.01 0.01 0.02 0.03 0.04 0.05 0.04 0.04 0.04 0.03 0.04 0.04 0.03 0.04 0.06 0.07 0.06 0.05 0.05 0.05 0.05 0.06 0.07 0.07 0.11
0.00 0.00 0.00 0.00 0.00 0.00 0.00 0.00 0.00 0.00 0.00 0.00 0.00 0.00 0.01 0.01 0.01 0.02 0.01 0.01 0.02 0.03 0.05 0.05 0.04 0.04 0.04 0.04 0.03 0.03 0.03 0.03 0.04 0.05 0.05 0.05 0.06 0.05 0.05 0.05 0.05 0.07 0.09
0.00 0.00 0.00 0.00 0.00 0.00 0.00 0.00 0.00 0.00 0.00 0.00 0.00 0.00 0.01 0.01 0.01 0.01 0.01 0.02 0.01 0.02 0.05 0.08 0.07 0.05 0.05 0.05 0.04 0.03 0.03 0.04 0.05 0.05 0.06 0.06 0.06 0.05 0.05 0.05 0.06 0.06 0.07
0.00 0.00 0.00 0.00 0.00 0.00 0.00 0.00 0.00 0.00 0.00 0.00 0.01 0.01 0.01 0.01 0.01 0.02 0.02 0.02 0.02 0.03 0.05 0.08 0.09 0.08 0.08 0.07 0.07 0.07 0.05 0.05 0.06 0.07 0.07 0.07 0.06 0.07 0.07 0.06 0.07 0.07 0.05
0.00 0.00 0.00 0.00 0.00 0.00 0.00 0.00 0.00 0.00 0.00 0.00 0.00 0.01 0.01 0.01 0.01 0.02 0.02 0.02 0.04 0.05 0.05 0.05 0.06 0.08 0.08 0.07 0.06 0.06 0.06 0.05 0.05 0.05 0.04 0.04 0.05 0.05 0.07 0.08 0.08 0.06 0.05
0.00 0.00 0.00 0.00 0.00 0.00 0.00 0.00 0.00 0.00 0.00 0.00 0.00 0.00 0.01 0.01 0.01 0.02 0.03 0.04 0.03 0.03 0.03 0.05 0.04 0.06 0.07 0.09 0.08 0.06 0.07 0.08 0.07 0.04 0.03 0.02 0.02 0.03 0.04 0.05 0.06 0.07 0.05
0.00 0.00 0.00 0.00 0.00 0.00 0.00 0.00 0.00 0.00 0.00 0.00 0.00 0.00 0.00 0.00 0.01 0.01 0.02 0.02 0.02 0.02 0.03 0.04 0.04 0.05 0.06 0.08 0.07 0.07 0.09 0.09 0.05 0.03 0.03 0.02 0.02 0.01 0.02 0.03 0.04 0.04 0.03
0.00 0.00 0.00 0.00 0.00 0.00 0.00 0.00 0.00 0.00 0.00 0.00 0.00 0.00 0.00 0.01 0.01 0.01 0.01 0.01 0.01 0.02 0.03 0.02 0.02 0.03 0.04 0.06 0.06 0.06 0.08 0.07 0.04 0.02 0.02 0.02 0.02 0.01 0.01 0.02 0.02 0.02 0.01
0.00 0.00 0.00 0.00 0.00 0.00 0.00 0.00 0.00 0.00 0.00 0.00 0.00 0.00 0.00 0.00 0.01 0.01 0.01 0.01 0.01 0.02 0.01 0.01 0.02 0.03 0.04 0.05 0.05 0.05 0.06 0.06 0.04 0.03 0.02 0.01 0.01 0.01 0.01 0.01 0.00 0.00 0.00
0.00 0.00 0.00 0.00 0.00 0.00 0.00 0.00 0.00 0.00 0.00 0.00 0.00 0.00 0.00 0.00 0.00 0.00 0.00 0.00 0.00 0.00 0.00 0.01 0.01 0.02 0.03 0.03 0.02 0.03 0.03 0.03 0.02 0.01 0.01 0.01 0.01 0.01 0.00 0.01 0.01 0.00 0.00
0.00 0.00 0.00 0.00 0.00 0.00 0.00 0.00 0.00 0.00 0.00 0.00 0.00 0.00 0.00 0.00 0.00 0.00 0.00 0.00 0.00 0.00 0.01 0.01 0.01 0.01 0.01 0.01 0.01 0.01 0.02 0.02 0.01 0.01 0.01 0.01 0.01 0.00 0.00 0.00 0.01 0.00 0.00
0.00 0.00 0.00 0.00 0.00 0.00 0.00 0.00 0.00 0.00 0.00 0.00 0.00 0.00 0.00 0.00 0.00 0.00 0.00 0.00 0.00 0.01 0.01 0.00 0.01 0.01 0.00 0.01 0.01 0.00 0.01 0.01 0.01 0.01 0.00 0.00 0.00 0.00 0.00 0.00 0.00 0.00 0.00
0.00 0.00 0.00 0.00 0.00 0.00 0.00 0.00 0.00 0.00 0.00 0.00 0.00 0.00 0.00 0.00 0.00 0.00 0.00 0.00 0.00 0.00 0.00 0.00 0.00 0.00 0.00 0.00 0.00 0.00 0.00 0.01 0.01 0.00 0.00 0.00 0.00 0.00 0.00 0.00 0.00 0.00 0.00
0.00 0.00 0.00 0.00 0.00 0.00 0.00 0.00 0.00 0.00 0.00 0.00 0.00 0.00 0.00 0.00 0.00 0.00 0.00 0.00 0.00 0.00 0.00 0.00 0.00 0.00 0.00 0.00 0.00 0.00 0.00 0.01 0.00 0.00 0.00 0.00 0.00 0.00 0.00 0.00 0.00 0.00 0.00
0.00 0.00 0.00 0.00 0.00 0.00 0.00 0.00 0.00 0.00 0.00 0.00 0.00 0.00 0.00 0.00 0.00 0.00 0.00 0.00 0.00 0.00 0.00 0.00 0.00 0.00 0.00 0.00 0.00 0.00 0.00 0.00 0.00 0.00 0.00 0.00 0.00 0.00 0.00 0.00 0.00 0.00 0.00
0.00 0.00 0.00 0.00 0.00 0.00 0.00 0.00 0.00 0.00 0.00 0.00 0.00 0.00 0.00 0.00 0.00 0.00 0.00 0.00 0.00 0.00 0.00 0.00 0.00 0.00 0.00 0.00 0.00 0.00 0.00 0.00 0.00 0.00 0.00 0.00 0.00 0.00 0.00 0.00 0.00 0.00 0.00
0.00 0.00 0.00 0.00 0.00 0.00 0.00 0.00 0.00 0.00 0.00 0.00 0.00 0.00 0.00 0.00 0.00 0.00 0.00 0.00 0.00 0.00 0.00 0.00 0.00 0.00 0.00 0.00 0.00 0.00 0.00 0.00 0.00 0.00 0.00 0.00 0.00 0.00 0.00 0.00 0.00 0.00 0.00
0.00 0.00 0.00 0.00 0.00 0.00 0.00 0.00 0.00 0.00 0.00 0.00 0.00 0.00 0.00 0.00 0.00 0.00 0.00 0.00 0.00 0.00 0.00 0.00 0.00 0.00 0.00 0.00 0.00 0.00 0.00 0.00 0.00 0.00 0.00 0.00 0.00 0.00 0.00 0.00 0.00 0.00 0.00
0.00 0.00 0.00 0.00 0.00 0.00 0.00 0.00 0.00 0.00 0.00 0.00 0.00 0.00 0.00 0.00 0.00 0.00 0.00 0.00 0.00 0.00 0.00 0.00 0.00 0.00 0.00 0.00 0.00 0.00 0.00 0.00 0.00 0.00 0.00 0.00 0.00 0.00 0.00 0.00 0.00 0.00 0.00
0.00 0.00 0.00 0.00 0.00 0.00 0.00 0.00 0.00 0.00 0.00 0.00 0.00 0.00 0.00 0.00 0.00 0.00 0.00 0.00 0.00 0.00 0.00 0.00 0.00 0.00 0.00 0.00 0.00 0.00 0.00 0.00 0.00 0.00 0.00 0.00 0.00 0.00 0.00 0.00 0.00 0.00 0.00
0.00 0.00 0.00 0.00 0.00 0.00 0.00 0.00 0.00 0.00 0.00 0.00 0.00 0.00 0.00 0.00 0.00 0.00 0.00 0.00 0.00 0.00 0.00 0.00 0.00 0.00 0.00 0.00 0.00 0.00 0.00 0.00 0.00 0.00 0.00 0.00 0.00 0.00 0.00 0.00 0.00 0.00 0.00
MSLP
1016.53 1016.22 1015.94 1015.67 1015.39 1015.08 1014.71 1014.29 1013.81 1013.28 1012.73 1012.17 1011.63 1011.11 1010.64 1010.24 1009.90 1009.63 1009.44 1009.34 1009.32 1009.38 1009.53 1009.76 1010.07 1010.45 1010.89 1011.37 1011.89 1012.42 1012.95 1013.45 1013.91 1014.32 1014.67 1014.96 1015.20 1015.39 1015.55 1015.70 1015.86 1016.03 1016.22
1016.70 1016.41 1016.14 1015.90 1015.64 1015.35 1015.02 1014.65 1014.22 1013.74 1013.24 1012.72 1012.20 1011.69 1011.22 1010.79 1010.41 1010.09 1009.83 1009.65 1009.53 1009.48 1009.51 1009.62 1009.82 1010.10 1010.45 1010.88 1011.38 1011.92 1012.49 1013.06 1013.61 1014.12 1014.56 1014.94 1015.25 1015.49 1015.69 1015.85 1016.01 1016.16 1016.34
1016.93 1016.66 1016.42 1016.18 1015.93 1015.65 1015.34 1015.00 1014.60 1014.17 1013.71 1013.23 1012.75 1012.27 1011.82 1011.39 1011.00 1010.65 1010.35 1010.10 1009.91 1009.78 1009.71 1009.71 1009.79 1009.96 1010.22 1010.58 1011.02 1011.54 1012.11 1012.70 1013.30 1013.86 1014.38 1014.83 1015.20 1015.51 1015.76 1015.97 1016.15 1016.34 1016.53
1017.21 1016.98 1016.74 1016.50 1016.23 1015.95 1015.64 1015.29 1014.91 1014.51 1014.09 1013.65 1013.21 1012.77 1012.34 1011.94 1011.57 1011.22 1010.91 1010.63 1010.40 1010.21 1010.06 1009.98 1009.97 1010.05 1010.21 1010.48 1010.84 1011.29 1011.81 1012.37 1012.96 1013.54 1014.09 1014.59 1015.02 1015.40 1015.72 1015.99 1016.24 1016.49 1016.73
1017.51 1017.30 1017.07 1016.81 1016.52 1016.21 1015.87 1015.51 1015.13 1014.74 1014.34 1013.93 1013.53 1013.13 1012.75 1012.39 1012.05 1011.73 1011.43 1011.16 1010.92 1010.70 1010.53 1010.39 1010.32 1010.31 1010.39 1010.56 1010.82 1011.17 1011.60 1012.10 1012.63 1013.18 1013.71 1014.23 1014.70 1015.13 1015.53 1015.89 1016.23 1016.57 1016.90
1017.79 1017.61 1017.37 1017.09 1016.76 1016.41 1016.03 1015.65 1015.26 1014.86 1014.48 1014.10 1013.73 1013.38 1013.04 1012.72 1012.42 1012.14 1011.88 1011.63 1011.41 1011.21 1011.03 1010.89 1010.78 1010.72 1010.72 1010.80 1010.96 1011.20 1011.52 1011.90 1012.34 1012.81 1013.30 1013.80 1014.28 1014.76 1015.22 1015.67 1016.12 1016.56 1017.00
1018.02 1017.85 1017.61 1017.30 1016.95 1016.56 1016.16 1015.75 1015.34 1014.95 1014.58 1014.22 1013.88 1013.55 1013.25 1012.96 1012.70 1012.46 1012.24 1012.04 1011.85 1011.69 1011.54 1011.40 1011.29 1011.21 1011.17 1011.18 1011.25 1011.38 1011.58 1011.84 1012.16 1012.53 1012.94 1013.39 1013.86 1014.36 1014.87 1015.40 1015.94 1016.49 1017.03
1018.15 1018.00 1017.77 1017.46 1017.09 1016.69 1016.28 1015.86 1015.46 1015.08 1014.72 1014.38 1014.06 1013.75 1013.46 1013.20 1012.95 1012.73 1012.54 1012.37 1012.23 1012.11 1012.00 1011.90 1011.82 1011.75 1011.70 1011.67 1011.67 1011.72 1011.81 1011.96 1012.16 1012.42 1012.74 1013.12 1013.56 1014.04 1014.58 1015.16 1015.77 1016.39 1017.03
1018.19 1018.06 1017.84 1017.55 1017.20 1016.82 1016.43 1016.04 1015.67 1015.32 1014.98 1014.66 1014.35 1014.05 1013.76 1013.49 1013.24 1013.02 1012.83 1012.68 1012.56 1012.48 1012.41 1012.36 1012.32 1012.28 1012.25 1012.21 1012.19 1012.18 1012.21 1012.27 1012.38 1012.55 1012.78 1013.09 1013.47 1013.92 1014.45 1015.03 1015.66 1016.33 1017.01
1018.12 1018.02 1017.83 1017.58 1017.28 1016.96 1016.63 1016.30 1015.99 1015.70 1015.40 1015.11 1014.81 1014.51 1014.20 1013.90 1013.62 1013.37 1013.16 1012.99 1012.88 1012.81 1012.77 1012.77 1012.77 1012.78 1012.78 1012.78 1012.76 1012.75 1012.75 1012.77 1012.82 1012.93 1013.09 1013.33 1013.65 1014.05 1014.53 1015.08 1015.70 1016.35 1017.03
1017.95 1017.88 1017.75 1017.56 1017.34 1017.10 1016.86 1016.63 1016.41 1016.18 1015.95 1015.70 1015.42 1015.11 1014.78 1014.44 1014.11 1013.80 1013.54 1013.34 1013.20 1013.12 1013.09 1013.11 1013.16 1013.21 1013.27 1013.31 1013.34 1013.36 1013.38 1013.40 1013.44 1013.51 1013.64 1013.83 1014.09 1014.43 1014.84 1015.34 1015.89 1016.49 1017.12
1017.71 1017.67 1017.58 1017.47 1017.34 1017.21 1017.08 1016.96 1016.85 1016.71 1016.55 1016.35 1016.09 1015.78 1015.43 1015.06 1014.67 1014.31 1013.98 1013.72 1013.54 1013.43 1013.39 1013.41 1013.48 1013.58 1013.68 1013.78 1013.87 1013.95 1014.01 1014.07 1014.14 1014.22 1014.34 1014.51 1014.73 1015.01 1015.35 1015.76 1016.22 1016.74 1017.28
1017.39 1017.38 1017.35 1017.30 1017.26 1017.24 1017.23 1017.22 1017.21 1017.18 1017.10 1016.95 1016.73 1016.44 1016.08 1015.68 1015.25 1014.84 1014.46 1014.14 1013.90 1013.75 1013.69 1013.69 1013.76 1013.88 1014.02 1014.17 1014.32 1014.46 1014.59 1014.71 1014.83 1014.96 1015.10 1015.26 1015.46 1015.70 1015.98 1016.30 1016.67 1017.08 1017.52
1017.03 1017.03 1017.04 1017.05 1017.08 1017.15 1017.23 1017.33 1017.41 1017.46 1017.46 1017.38 1017.21 1016.95 1016.61 1016.21 1015.77 1015.33 1014.92 1014.57 1014.29 1014.10 1013.99 1013.97 1014.02 1014.14 1014.29 1014.47 1014.66 1014.86 1015.06 1015.25 1015.43 1015.61 1015.79 1015.98 1016.18 1016.39 1016.63 1016.89 1017.17 1017.48 1017.82
1016.62 1016.63 1016.65 1016.70 1016.78 1016.91 1017.06 1017.22 1017.37 1017.49 1017.55 1017.54 1017.42 1017.21 1016.92 1016.56 1016.15 1015.73 1015.33 1014.97 1014.67 1014.46 1014.32 1014.27 1014.29 1014.38 1014.52 1014.70 1014.92 1015.14 1015.38 1015.63 1015.87 1016.11 1016.35 1016.58 1016.79 1017.01 1017.22 1017.44 1017.66 1017.90 1018.15
1016.18 1016.19 1016.21 1016.27 1016.38 1016.52 1016.70 1016.89 1017.08 1017.24 1017.35 1017.38 1017.32 1017.18 1016.96 1016.67 1016.33 1015.98 1015.63 1015.31 1015.04 1014.82 1014.68 1014.60 1014.59 1014.64 1014.75 1014.90 1015.10 1015.33 1015.59 1015.86 1016.15 1016.44 1016.72 1016.99 1017.25 1017.48 1017.70 1017.91 1018.10 1018.30 1018.50
1015.70 1015.71 1015.73 1015.79 1015.89 1016.03 1016.20 1016.39 1016.58 1016.75 1016.88 1016.95 1016.95 1016.88 1016.74 1016.55 1016.31 1016.06 1015.81 1015.56 1015.35 1015.17 1015.04 1014.95 1014.92 1014.93 1014.99 1015.10 1015.26 1015.47 1015.71 1015.99 1016.29 1016.61 1016.92 1017.23 1017.53 1017.79 1018.04 1018.25 1018.45 1018.63 1018.82
1015.17 1015.19 1015.23 1015.29 1015.37 1015.49 1015.64 1015.80 1015.97 1016.12 1016.24 1016.33 1016.37 1016.36 1016.31 1016.22 1016.11 1015.98 1015.84 1015.71 1015.58 1015.47 1015.38 1015.30 1015.26 1015.24 1015.26 1015.32 1015.43 1015.59 1015.80 1016.05 1016.34 1016.66 1017.00 1017.33 1017.65 1017.95 1018.22 1018.47 1018.69 1018.88 1019.07
1014.58 1014.64 1014.70 1014.78 1014.86 1014.96 1015.08 1015.20 1015.33 1015.45 1015.55 1015.63 1015.69 1015.73 1015.75 1015.76 1015.76 1015.76 1015.75 1015.73 1015.71 1015.68 1015.64 1015.60 1015.56 1015.53 1015.52 1015.54 1015.60 1015.71 1015.87 1016.09 1016.35 1016.66 1016.98 1017.33 1017.66 1017.98 1018.28 1018.55 1018.79 1019.02 1019.22
1013.89 1014.03 1014.14 1014.26 1014.36 1014.47 1014.57 1014.66 1014.75 1014.82 1014.89 1014.95 1015.02 1015.08 1015.15 1015.23 1015.32 1015.42 1015.51 1015.61 1015.69 1015.75 1015.78 1015.79 1015.78 1015.76 1015.73 1015.72 1015.75 1015.82 1015.93 1016.11 1016.34 1016.61 1016.92 1017.25 1017.58 1017.91 1018.22 1018.50 1018.77 1019.01 1019.24
1013.10 1013.32 1013.53 1013.71 1013.86 1014.00 1014.10 1014.19 1014.25 1014.29 1014.33 1014.36 1014.40 1014.46 1014.55 1014.67 1014.81 1014.98 1015.15 1015.33 1015.50 1015.63 1015.74 1015.80 1015.83 1015.84 1015.83 1015.82 1015.83 1015.87 1015.97 1016.11 1016.30 1016.55 1016.83 1017.13 1017.45 1017.76 1018.06 1018.34 1018.61 1018.87 1019.11
1012.17 1012.50 1012.80 1013.07 1013.31 1013.50 1013.64 1013.74 1013.80 1013.83 1013.84 1013.85 1013.86 1013.90 1013.98 1014.10 1014.26 1014.45 1014.66 1014.89 1015.11 1015.31 1015.47 1015.59 1015.67 1015.72 1015.74 1015.76 1015.78 1015.83 1015.92 1016.05 1016.23 1016.45 1016.70 1016.97 1017.25 1017.54 1017.82 1018.08 1018.34 1018.59 1018.82
1011.10 1011.52 1011.93 1012.30 1012.62 1012.89 1013.10 1013.24 1013.33 1013.36 1013.37 1013.35 1013.34 1013.36 1013.41 1013.50 1013.64 1013.83 1014.05 1014.28 1014.53 1014.75 1014.96 1015.12 1015.26 1015.36 1015.43 1015.50 1015.56 1015.65 1015.76 1015.90 1016.07 1016.28 1016.51 1016.76 1017.01 1017.26 1017.51 1017.75 1017.98 1018.20 1018.43
1009.93 1010.41 1010.88 1011.34 1011.75 1012.10 1012.38 1012.58 1012.72 1012.78 1012.80 1012.79 1012.77 1012.76 1012.78 1012.85 1012.95 1013.11 1013.30 1013.53 1013.76 1014.00 1014.22 1014.43 1014.61 1014.76 1014.90 1015.02 1015.15 1015.29 1015.44 1015.62 1015.81 1016.03 1016.25 1016.49 1016.72 1016.94 1017.16 1017.36 1017.56 1017.76 1017.96
1008.70 1009.19 1009.70 1010.20 1010.67 1011.08 1011.43 1011.70 1011.89 1012.01 1012.07 1012.08 1012.07 1012.06 1012.06 1012.10 1012.17 1012.29 1012.45 1012.64 1012.86 1013.09 1013.32 1013.55 1013.76 1013.97 1014.16 1014.35 1014.55 1014.75 1014.96 1015.19 1015.42 1015.67 1015.91 1016.15 1016.37 1016.58 1016.78 1016.96 1017.13 1017.30 1017.47
1007.52 1007.95 1008.43 1008.93 1009.42 1009.86 1010.26 1010.58 1010.83 1011.01 1011.12 1011.17 1011.20 1011.20 1011.21 1011.24 1011.30 1011.39 1011.53 1011.69 1011.88 1012.10 1012.32 1012.56 1012.80 1013.04 1013.28 1013.53 1013.79 1014.06 1014.34 1014.62 1014.91 1015.20 1015.47 1015.73 1015.97 1016.18 1016.38 1016.55 1016.70 1016.86 1017.01
Thickness
5641 5640 5640 5640 5641 5641 5641 5642 5643 5645 5647 5649 5652 5654 5658 5662 5666 5670 5674 5677 5679 5681 5683 5685 5687 5689 5690 5691 5692 5692 5692 5691 5688 5689 5693 5696 5698 5699 5699 5699 5699 5698 5697
5640 5639 5638 5638 5638 5637 5637 5638 5639 5639 5641 5642 5644 5647 5650 5654 5657 5661 5665 5669 5670 5672 5675 5677 5679 5682 5683 5684 5685 5685 5685 5685 5684 5682 5684 5687 5689 5690 5691 5691 5690 5690 5689
5640 5638 5637 5635 5635 5634 5633 5634 5634 5634 5635 5636 5638 5640 5643 5646 5650 5653 5657 5660 5662 5664 5667 5669 5671 5673 5674 5676 5677 5678 5678 5679 5678 5677 5677 5679 5679 5681 5681 5681 5681 5681 5680
5640 5638 5635 5634 5633 5632 5631 5631 5630 5630 5630 5631 5632 5634 5636 5640 5643 5646 5649 5651 5654 5657 5659 5661 5663 5665 5666 5668 5670 5671 5671 5671 5671 5671 5670 5670 5671 5672 5673 5671 5670 5671 5671
5640 5637 5635 5633 5632 5631 5629 5628 5627 5627 5626 5626 5626 5628 5631 5634 5637 5638 5641 5644 5646 5648 5651 5653 5656 5659 5661 5662 5663 5664 5665 5664 5664 5664 5663 5663 5663 5664 5664 5664 5662 5661 5661
5641 5638 5636 5634 5632 5630 5628 5626 5624 5623 5622 5622 5621 5622 5624 5627 5631 5633 5635 5636 5638 5640 5642 5645 5649 5652 5655 5657 5658 5660 5660 5659 5658 5658 5657 5657 5658 5659 5659 5658 5656 5655 5651
5643 5640 5637 5634 5632 5629 5628 5625 5623 5621 5619 5618 5617 5618 5619 5622 5626 5628 5629 5630 5631 5632 5634 5637 5641 5644 5647 5649 5651 5653 5654 5656 5657 5656 5654 5654 5654 5656 5655 5653 5651 5650 5647
5645 5642 5638 5635 5632 5630 5627 5625 5622 5620 5618 5616 5614 5614 5615 5618 5621 5622 5623 5623 5623 5625 5627 5630 5632 5635 5639 5641 5643 5644 5646 5648 5651 5652 5652 5652 5653 5653 5653 5651 5648 5643 5640
5648 5644 5641 5637 5634 5631 5628 5625 5623 5620 5618 5616 5614 5613 5612 5614 5617 5618 5617 5617 5617 5618 5620 5624 5626 5629 5632 5635 5636 5637 5638 5640 5643 5645 5647 5648 5648 5648 5647 5644 5640 5638 5632
5652 5648 5645 5641 5637 5633 5630 5628 5625 5622 5619 5617 5614 5612 5611 5610 5613 5614 5614 5613 5612 5613 5615 5618 5621 5624 5627 5629 5630 5631 5632 5632 5636 5638 5639 5640 5640 5641 5641 5641 5639 5634 5630
5657 5653 5648 5644 5641 5637 5634 5630 5627 5624 5621 5617 5614 5612 5610 5609 5610 5611 5611 5610 5609 5610 5611 5612 5615 5619 5622 5624 5626 5627 5628 5629 5630 5631 5631 5632 5632 5633 5634 5634 5634 5633 5629
5660 5656 5652 5648 5645 5642 5637 5633 5629 5626 5622 5618 5615 5612 5610 5609 5609 5610 5610 5610 5610 5609 5609 5610 5613 5616 5619 5621 5622 5624 5625 5625 5625 5625 5625 5625 5625 5626 5626 5627 5627 5627 5627
5663 5659 5655 5652 5648 5644 5640 5636 5631 5627 5624 5620 5617 5614 5611 5610 5610 5611 5611 5611 5611 5610 5610 5611 5614 5615 5617 5619 5620 5621 5621 5621 5621 5620 5619 5619 5620 5620 5621 5621 5620 5621 5621
5667 5663 5659 5655 5651 5647 5643 5639 5635 5630 5627 5624 5620 5617 5614 5613 5612 5612 5612 5612 5613 5612 5612 5613 5614 5615 5616 5617 5617 5618 5618 5618 5618 5616 5615 5615 5616 5616 5615 5616 5615 5615 5613
5671 5667 5663 5659 5655 5651 5647 5643 5639 5635 5631 5628 5625 5622 5619 5617 5616 5617 5616 5615 5615 5615 5615 5615 5614 5614 5613 5614 5615 5615 5616 5616 5615 5614 5614 5613 5613 5613 5612 5612 5611 5610 5608
5674 5670 5666 5663 5658 5654 5650 5646 5644 5641 5638 5635 5632 5628 5626 5624 5623 5622 5621 5621 5621 5620 5618 5615 5613 5613 5613 5613 5613 5614 5614 5614 5614 5614 5613 5613 5612 5611 5610 5609 5608 5606 5604
5679 5675 5671 5667 5663 5658 5654 5650 5647 5645 5643 5640 5637 5635 5632 5630 5628 5627 5626 5625 5625 5624 5620 5617 5615 5615 5614 5615 5615 5615 5614 5615 5615 5614 5614 5613 5612 5611 5609 5608 5606 5603 5601
5683 5680 5675 5671 5667 5664 5660 5656 5653 5649 5646 5645 5643 5641 5638 5635 5633 5632 5630 5629 5626 5625 5622 5620 5619 5618 5618 5617 5617 5617 5616 5616 5616 5615 5614 5614 5613 5611 5609 5607 5605 5604 5601
5685 5681 5678 5674 5671 5667 5664 5661 5657 5654 5651 5649 5646 5644 5643 5640 5638 5636 5634 5631 5629 5627 5625 5624 5623 5622 5621 5620 5620 5619 5619 5618 5617 5616 5615 5615 5613 5612 5610 5608 5607 5606 5603
5686 5685 5680 5676 5673 5669 5667 5664 5661 5658 5655 5652 5650 5648 5646 5642 5639 5638 5637 5634 5632 5630 5629 5627 5626 5625 5624 5623 5622 5622 5621 5619 5618 5617 5616 5615 5615 5614 5612 5610 5608 5606 5604
5687 5684 5682 5677 5674 5671 5669 5666 5664 5661 5659 5657 5656 5655 5651 5647 5645 5643 5641 5638 5637 5635 5634 5632 5630 5629 5628 5626 5625 5624 5623 5621 5620 5619 5618 5617 5616 5614 5613 5611 5609 5607 5605
5688 5684 5680 5677 5674 5672 5670 5668 5666 5664 5662 5660 5659 5658 5655 5650 5648 5647 5645 5644 5643 5641 5640 5637 5635 5633 5632 5630 5628 5627 5625 5623 5622 5621 5619 5618 5617 5615 5614 5612 5609 5607 5605
5687 5683 5680 5677 5675 5673 5670 5668 5667 5665 5664 5662 5661 5659 5656 5653 5652 5650 5650 5649 5647 5645 5643 5641 5639 5637 5635 5634 5632 5630 5628 5626 5625 5624 5621 5619 5617 5616 5614 5612 5610 5608 5606
5686 5683 5679 5676 5673 5671 5669 5668 5667 5666 5665 5663 5662 5660 5659 5657 5655 5655 5654 5652 5650 5648 5646 5644 5642 5641 5638 5636 5634 5633 5631 5629 5628 5626 5624 5621 5619 5616 5614 5612 5610 5609 5607
5684 5681 5678 5675 5672 5670 5668 5667 5666 5665 5665 5664 5663 5662 5661 5659 5658 5657 5656 5654 5652 5650 5648 5646 5644 5642 5641 5638 5636 5634 5632 5630 5628 5626 5623 5621 5619 5616 5614 5612 5610 5608 5606
5682 5680 5677 5674 5671 5669 5667 5665 5665 5664 5663 5663 5663 5662 5661 5660 5659 5658 5657 5655 5653 5651 5650 5648 5646 5644 5642 5640 5638 5635 5633 5630 5627 5625 5622 5620 5617 5615 5613 5610 5609 5606 5605